Home   Weather   Saarlouis   Past weeks

Flag for Germany Past Weather in Saarlouis, Saarland, Germany — Yesterday and Last 2 Weeks

Now
30 °F

Fog.


Feels Like: 30 °F
Forecast: 35 / 44 °F
Wind: 1 mph from North

Location: Saarbruecken / Ensheim

Current Time: Dec 10, 2016 at 8:05:52 am

Latest Report: Dec 10, 2016 at 7:20 am


Visibility: 4 mi

Pressure: 30.33 "Hg

Humidity: 93%

Dew Point: 28 °F

Location of SaarlouisLocation

Past Weather in Saarlouis — Graph

°F

Saarlouis Temperature Yesterday

Maximum temperature yesterday: 45 °F (at 1:20 pm)
Minimum temperature yesterday: 32 °F (at 12:50 am)
Average temperature yesterday: 36 °F

High & Low Weather Summary for the Past Weeks

 TemperatureHumidityPressure
High48 °F (Nov 25, 1:50 pm)100% (Nov 27, 2:50 am)30.54 "Hg (Nov 27, 2:50 am)
Low19 °F (Nov 30, 6:50 am)48% (Nov 29, 1:20 pm)29.92 "Hg (Nov 25, 6:20 am)
Average33 °F86%30.30 "Hg
* Reported Nov 25 6:20 am — Dec 10 6:50 am, Saarlouis, Weather by CustomWeather, © 2016

Note: Actual official high and low records may vary slightly from our data, if they occured in-between our weather recording intervals... More about our weather records

Advertising

Saarlouis Weather History for the Previous 24 Hours

Scroll right to see more
 ConditionsComfort  
Time TempWeatherWind HumidityBarometerVisibility
6:50 am
Sat, Dec 10
30 °FFog.1 mph100%30.33 "Hg4 mi
6:20 am30 °FFog.1 mph93%30.30 "Hg4 mi
5:50 am30 °FFog.2 mph93%30.33 "Hg4 mi
5:20 am32 °FClear.2 mph93%30.33 "Hg5 mi
4:50 am32 °FClear.2 mph100%30.33 "Hg6 mi
4:20 am34 °FFog.5 mph93%30.33 "Hg6 mi
3:50 am34 °FFog.3 mph93%30.33 "Hg6 mi
3:20 am36 °FClear.2 mph93%30.36 "Hg3 mi
2:50 am34 °FClear.2 mph100%30.36 "Hg4 mi
2:20 am34 °FClear.2 mph100%30.36 "Hg5 mi
1:50 am34 °FClear.2 mph93%30.36 "Hg4 mi
1:20 am34 °FClear.2 mph93%30.39 "Hg6 mi
12:50 am34 °FClear.1 mph100%30.39 "Hg5 mi
12:20 am34 °FClear.3 mph100%30.39 "Hg4 mi
11:50 pm
Fri, Dec 9
34 °FClear.1 mph93%30.39 "Hg6 mi
11:20 pm34 °FClear.3 mph93%30.39 "HgN/A
10:50 pm34 °FClear.1 mph100%30.39 "Hg10 mi
10:20 pm36 °FClear.1 mph93%30.39 "Hg10 mi
9:50 pm36 °FClear.1 mph93%30.39 "Hg10 mi
9:20 pm36 °FClear.2 mph93%30.42 "Hg10 mi
8:50 pm34 °FClear.1 mph93%30.42 "Hg10 mi
8:20 pm36 °FClear.1 mph93%30.42 "Hg10 mi
7:50 pm37 °FClear.1 mph87%30.42 "Hg10 mi
7:20 pm37 °FClear.1 mph87%30.42 "Hg10 mi
6:50 pm37 °FClear.2 mph87%30.42 "Hg10 mi
6:20 pm37 °FClear.1 mph87%30.42 "Hg10 mi
5:50 pm37 °FClear.No wind87%30.45 "Hg10 mi
5:20 pm37 °FPassing clouds.1 mph87%30.45 "HgN/A
4:50 pm39 °FPassing clouds.1 mph81%30.45 "HgN/A
4:20 pm41 °FScattered clouds.2 mph76%30.45 "HgN/A
3:50 pm43 °FPartly sunny.3 mph76%30.45 "HgN/A
3:20 pm43 °FPartly sunny.3 mph71%30.45 "HgN/A
2:50 pm43 °FBroken clouds.5 mph71%30.45 "HgN/A
2:20 pm45 °FPartly sunny.3 mph71%30.45 "HgN/A
1:50 pm45 °FPartly sunny.2 mph71%30.45 "HgN/A
1:20 pm45 °FPartly sunny.3 mph71%30.45 "HgN/A
12:50 pm43 °FBroken clouds.5 mph71%30.45 "HgN/A
12:20 pm41 °FPartly sunny.6 mph76%30.48 "HgN/A
11:50 am39 °FPartly sunny.3 mph75%30.48 "HgN/A
11:20 am39 °FPartly sunny.6 mph75%30.48 "HgN/A
10:50 am39 °FPartly sunny.6 mph75%30.48 "HgN/A
10:20 am37 °FPartly sunny.6 mph81%30.48 "HgN/A
9:50 am37 °FPartly sunny.2 mph81%30.48 "HgN/A
9:20 am36 °FPartly sunny.2 mph81%30.48 "HgN/A
8:50 am34 °FPartly sunny.1 mph81%30.48 "HgN/A
8:20 am32 °FScattered clouds.3 mph87%30.48 "HgN/A
Weather by CustomWeather, © 2016

See weather overviewHow to use our weather pages